FW4185 Weather Reports


Display with metric or nautical units.
time (UTC)temp
F
wind
direction
speed
MPH
gust
MPH
rain 1hr
in
rain 24hr
in
rain mn
in
humidity
%
barometer
mb
20260905152704 0 353 6.0 5.0 0.00 0.00 0.00
20260905151906 72 350 0.0 10.0 0.00 0.00 0.00 53 1014.5
20260905151115 72 357 5.0 10.0 0.00 0.00 0.00 51 1014.4
20260905150437 74 358 4.0 10.0 0.00 0.00 0.00 50 1014.4
20260905145756 74 355 0.0 2.0 0.00 0.00 0.00 51 1014.5
20260905145115 73 356 0.0 7.0 0.00 0.00 0.00 51 1014.5
20260905144446 0 359 4.0 8.0 0.00 0.00 0.00
20260905143645 73 356 2.0 6.0 0.00 0.00 0.00 53 1014.4
20260905143005 72 356 0.0 0.0 0.00 0.00 0.00 54 1014.4
20260905142325 71 357 0.0 0.0 0.00 0.00 0.00 65 1014.4
20260905141646 72 357 0.0 0.0 0.00 0.00 0.00 64 1014.4
20260905141005 72 357 0.0 0.0 0.00 0.00 0.00 66 1014.5
20260905140326 70 356 0.0 0.0 0.00 0.00 0.00 72 1014.6
20260905135318 67 360 0.0 0.0 0.00 0.00 0.00 76 1014.5
20260905134638 0 356 0.0 0.0 0.00 0.00 0.00
20260905133722 0 356 0.0 0.0 0.00 0.00 0.00
20260905132817 70 357 0.0 0.0 0.00 0.00 0.00 67 1014.4
20260905132147 71 356 0.0 0.0 0.00 0.00 0.00 67 1014.5
20260905131503 0 355 0.0 0.0 0.00 0.00 0.00
20260905130751 71 358 0.0 0.0 0.00 0.00 0.00 69 1014.5
20260905130111 0 357 0.0 0.0 0.00 0.00 0.00
20260905125222 69 356 0.0 0.0 0.00 0.00 0.00 71 1014.6
20260905124538 0 355 0.0 0.0 0.00 0.00 0.00
20260905123621 69 355 0.0 0.0 0.00 0.00 0.00 72 1014.7
20260905122943 0 354 0.0 0.0 0.00 0.00 0.00
20260905122152 69 355 0.0 0.0 0.00 0.00 0.00 74 1014.6
20260905121512 0 354 0.0 0.0 0.00 0.00 0.00
20260905120723 0 358 0.0 0.0 0.00 0.00 0.00
20260905115932 66 358 0.0 0.0 0.00 0.00 0.00 80 1014.8
20260905115252 66 358 0.0 0.0 0.00 0.00 0.00 80 1014.7
20260905114612 0 356 0.0 0.0 0.00 0.00 0.00
20260905113823 64 356 0.0 0.0 0.00 0.00 0.00 84 1014.6
20260905113144 64 358 0.0 0.0 0.00 0.00 0.00 85 1014.6
20260905112503 64 357 0.0 0.0 0.00 0.00 0.00 86 1014.4
20260905111823 64 356 0.0 0.0 0.00 0.00 0.00 88 1014.4
20260905111143 64 355 0.0 0.0 0.00 0.00 0.00 90 1014.2
20260905110503 0 358 0.0 0.0 0.00 0.00 0.00
20260905105712 62 357 0.0 0.0 0.00 0.00 0.00 90 1013.9
20260905105031 62 356 0.0 0.0 0.00 0.00 0.00 89 1013.7
20260905104351 62 356 0.0 0.0 0.00 0.00 0.00 89 1013.7
20260905103712 0 357 0.0 0.0 0.00 0.00 0.00
20260905102918 0 355 0.0 0.0 0.00 0.00 0.00
20260905101743 0 356 0.0 0.0 0.00 0.00 0.00
20260905100837 62 358 0.0 0.0 0.00 0.00 0.00 89 1013.9
20260905100158 0 359 0.0 0.0 0.00 0.00 0.00
20260905095405 62 359 0.0 0.0 0.00 0.00 0.00 89 1013.6
20260905094735 62 354 0.0 0.0 0.00 0.00 0.00 88 1013.6
20260905094045 62 354 0.0 0.0 0.00 0.00 0.00 88 1013.6
20260905093405 62 358 0.0 0.0 0.00 0.00 0.00 87 1013.6
20260905092353 0 357 0.0 0.0 0.00 0.00 0.00
20260905091453 0 357 0.0 0.0 0.00 0.00 0.00
20260905090701 0 356 0.0 0.0 0.00 0.00 0.00
20260905085914 63 359 0.0 0.0 0.00 0.00 0.00 84 1013.4
20260905085234 64 356 0.0 0.0 0.00 0.00 0.00 83 1013.2
20260905084554 0 351 0.0 0.0 0.00 0.00 0.00
20260905083816 64 355 0.0 0.0 0.00 0.00 0.00 82 1013.1
20260905083125 64 358 0.0 0.0 0.00 0.00 0.00 81 1013.0
20260905082447 64 357 0.0 0.0 0.00 0.00 0.00 81 1013.1
20260905081805 64 358 0.0 0.0 0.00 0.00 0.00 81 1013.0
20260905081126 0 354 0.0 0.0 0.00 0.00 0.00
20260905080306 65 358 0.0 0.0 0.00 0.00 0.00 79 1013.1
20260905075627 0 356 0.0 0.0 0.00 0.00 0.00
20260905074837 66 357 0.0 0.0 0.00 0.00 0.00 77 1013.1
20260905074157 0 0 0.0 0.0 0.00 0.00 0.00
20260905073408 66 355 0.0 0.0 0.00 0.00 0.00 76 1013.2
20260905072728 66 355 0.0 0.0 0.00 0.00 0.00 75 1013.3
20260905072048 66 356 0.0 0.0 0.00 0.00 0.00 75 1013.4
20260905071408 66 356 0.0 0.0 0.00 0.00 0.00 74 1013.5
20260905070734 0 358 0.0 0.0 0.00 0.00 0.00
20260905065758 0 355 0.0 0.0 0.00 0.00 0.00
20260905064748 67 357 0.0 0.0 0.00 0.00 0.00 72 1013.6
20260905064106 67 356 0.0 0.0 0.00 0.00 0.00 72 1013.6
20260905063427 67 358 0.0 0.0 0.00 0.00 0.00 71 1013.7
20260905062747 67 358 0.0 0.0 0.00 0.00 0.00 71 1013.7
20260905062107 67 356 0.0 0.0 0.00 0.00 0.00 70 1013.7
20260905061426 0 355 0.0 0.0 0.00 0.00 0.00
20260905060404 67 357 0.0 0.0 0.00 0.00 0.00 70 1013.8
20260905055726 0 358 0.0 0.0 0.00 0.00 0.00
20260905054927 0 358 0.0 0.0 0.00 0.00 0.00
20260905054140 0 358 0.0 0.0 0.00 0.00 0.00
20260905053056 68 356 0.0 0.0 0.00 0.00 0.00 68 1014.0
20260905052428 68 355 0.0 0.0 0.00 0.00 0.00 68 1014.0
20260905051737 0 357 0.0 0.0 0.00 0.00 0.00
20260905050838 68 355 0.0 0.0 0.00 0.00 0.00 68 1013.9
20260905050159 68 357 0.0 0.0 0.00 0.00 0.00 67 1013.9
20260905045518 68 355 0.0 0.0 0.00 0.00 0.00 68 1013.9
20260905044839 68 357 0.0 0.0 0.00 0.00 0.00 67 1013.9
20260905044159 0 357 0.0 0.0 0.00 0.00 0.00
20260905043242 0 357 0.0 0.0 0.00 0.00 0.00
20260905042248 0 355 0.0 0.0 0.00 0.00 0.00
20260905041131 0 356 0.0 0.0 0.00 0.00 0.00
20260905040050 0 356 0.0 0.0 0.00 0.00 0.00
20260905035119 71 358 0.0 0.0 0.00 0.00 0.00 63 1013.9
20260905034439 0 357 0.0 0.0 0.00 0.00 0.00
20260905033646 71 354 0.0 0.0 0.00 0.00 0.00 67 1013.8
20260905033005 71 356 0.0 0.0 0.00 0.00 0.00 68 1013.9
20260905032109 0 353 0.0 0.0 0.00 0.00 0.00
20260905031313 71 356 0.0 0.0 0.00 0.00 0.00 68 1013.8
20260905030632 0 352 0.0 0.0 0.00 0.00 0.00
20260905025809 72 358 0.0 0.0 0.00 0.00 0.00 70 1013.7
20260905025130 0 354 0.0 0.0 0.00 0.00 0.00
20260905024228 72 356 0.0 0.0 0.00 0.00 0.00 70 1013.8
20260905023548 72 356 0.0 0.0 0.00 0.00 0.00 70 1013.8
20260905022909 72 358 0.0 0.0 0.00 0.00 0.00 69 1013.8
20260905022229 72 357 0.0 0.0 0.00 0.00 0.00 69 1013.8
20260905021551 72 356 0.0 0.0 0.00 0.00 0.00 69 1013.8
20260905020909 0 356 0.0 0.0 0.00 0.00 0.00
20260905020010 73 357 0.0 0.0 0.00 0.00 0.00 69 1013.9
20260905015332 72 356 0.0 0.0 0.00 0.00 0.00 70 1013.9
20260905014652 0 356 0.0 0.0 0.00 0.00 0.00
20260905013748 72 354 0.0 0.0 0.00 0.00 0.00 70 1013.9
20260905013113 72 360 0.0 0.0 0.00 0.00 0.00 69 1013.9
20260905012428 0 357 0.0 0.0 0.00 0.00 0.00
20260905011608 72 354 0.0 0.0 0.00 0.00 0.00 70 1013.9
20260905010928 72 354 0.0 0.0 0.00 0.00 0.00 71 1014.0
20260905010248 72 356 0.0 0.0 0.00 0.00 0.00 70 1014.0
20260905005608 72 356 0.0 0.0 0.00 0.00 0.00 71 1013.9
20260905004929 72 356 0.0 0.0 0.00 0.00 0.00 71 1013.8
20260905004248 0 357 0.0 0.0 0.00 0.00 0.00
20260905003501 0 355 0.0 0.0 0.00 0.00 0.00
20260905002641 0 360 0.0 0.0 0.00 0.00 0.00
20260905001939 72 357 0.0 0.0 0.00 0.00 0.00 70 1013.9
20260905001254 0 352 0.0 0.0 0.00 0.00 0.00
20260905000244 72 355 0.0 0.0 0.00 0.00 0.00 70 1013.8
20260904235603 0 356 0.0 0.0 0.00 0.00 0.00
20260904234200 0 355 0.0 0.0 0.00 0.00 0.00
20260904233225 73 356 0.0 0.0 0.00 0.00 0.00 67 1013.7
20260904232546 72 357 0.0 0.0 0.00 0.00 0.00 68 1013.6
20260904231905 72 354 0.0 0.0 0.00 0.00 0.00 67 1013.7
20260904231225 73 357 0.0 0.0 0.00 0.00 0.00 69 1013.6
20260904230555 73 360 0.0 0.0 0.00 0.00 0.00 67 1013.5
20260904225759 0 357 0.0 0.0 0.00 0.00 0.00
20260904224829 72 354 0.0 0.0 0.00 0.00 0.00 68 1013.4
20260904224147 72 359 0.0 0.0 0.00 0.00 0.00 68 1013.4
20260904223512 73 357 0.0 0.0 0.00 0.00 0.00 68 1013.3
20260904222836 72 355 0.0 0.0 0.00 0.00 0.00 67 1013.2
20260904222148 73 356 0.0 0.0 0.00 0.00 0.00 65 1013.1
20260904221507 73 356 0.0 0.0 0.00 0.00 0.00 64 1012.9
20260904220828 73 357 0.0 0.0 0.00 0.00 0.00 64 1012.9
20260904220147 73 356 0.0 0.0 0.00 0.00 0.00 64 1012.9
20260904215507 73 355 0.0 0.0 0.00 0.00 0.00 63 1012.7
20260904214827 73 358 0.0 0.0 0.00 0.00 0.00 64 1012.7
20260904214148 73 354 0.0 0.0 0.00 0.00 0.00 65 1012.7
20260904213507 73 353 0.0 0.0 0.00 0.00 0.00 64 1012.6
20260904212827 0 356 0.0 0.0 0.00 0.00 0.00
20260904211935 73 358 0.0 0.0 0.00 0.00 0.00 64 1012.6
20260904211245 72 358 0.0 0.0 0.00 0.00 0.00 66 1012.8
20260904210606 72 357 0.0 0.0 0.00 0.00 0.00 66 1013.1
20260904205925 73 357 0.0 0.0 0.00 0.00 0.00 64 1013.3
20260904205245 73 355 0.0 0.0 0.00 0.00 0.00 65 1013.2
20260904204606 73 356 0.0 0.0 0.00 0.00 0.00 64 1013.4
20260904203936 73 357 0.0 0.0 0.00 0.00 0.00 63 1013.5
20260904203245 73 360 0.0 0.0 0.00 0.00 0.00 65 1013.4
20260904202620 73 354 0.0 0.0 0.00 0.00 0.00 66 1013.4
20260904201818 0 353 0.0 0.0 0.00 0.00 0.00
20260904200918 0 0 0.0 0.0 0.00 0.00 0.00
20260904200132 73 355 0.0 6.0 0.00 0.00 0.00 64 1013.6
20260904195448 0 356 1.0 7.0 0.00 0.00 0.00
20260904194656 73 357 4.0 5.0 0.00 0.00 0.00 65 1013.7
20260904193749 0 360 0.0 6.0 0.00 0.00 0.00
20260904192958 73 357 2.0 7.0 0.00 0.00 0.00 65 1013.9
20260904192319 73 355 5.0 7.0 0.00 0.00 0.00 66 1014.0
20260904191641 73 356 0.0 7.0 0.00 0.00 0.00 66 1014.1
20260904190958 73 356 3.0 9.0 0.00 0.00 0.00 65 1014.2
20260904190318 0 358 3.0 5.0 0.00 0.00 0.00
20260904185528 0 357 7.0 8.0 0.00 0.00 0.00
20260904184738 73 355 4.0 10.0 0.00 0.00 0.00 62 1014.6
20260904184058 0 356 4.0 4.0 0.00 0.00 0.00
20260904183157 73 356 0.0 0.0 0.00 0.00 0.00 60 1014.8
20260904182516 74 358 0.0 0.0 0.00 0.00 0.00 58 1014.7
20260904181838 75 357 0.0 8.0 0.00 0.00 0.00 55 1014.7
20260904181158 0 357 1.0 8.0 0.00 0.00 0.00
20260904180406 76 356 0.0 0.0 0.00 0.00 0.00 53 1014.7
20260904175736 75 357 0.0 0.0 0.00 0.00 0.00 50 1014.8
20260904175046 0 360 0.0 0.0 0.00 0.00 0.00
20260904174230 75 356 0.0 4.0 0.00 0.00 0.00 49 1014.9
20260904173551 0 356 0.0 9.0 0.00 0.00 0.00
20260904172753 75 356 6.0 9.0 0.00 0.00 0.00 48 1015.0
20260904172110 77 355 0.0 5.0 0.00 0.00 0.00 49 1015.1
20260904171439 0 353 0.0 3.0 0.00 0.00 0.00
20260904170534 75 357 0.0 0.0 0.00 0.00 0.00 52 1015.4
20260904165848 75 358 0.0 0.0 0.00 0.00 0.00 53 1015.6
20260904165209 77 356 0.0 0.0 0.00 0.00 0.00 52 1015.6
20260904164530 74 356 0.0 0.0 0.00 0.00 0.00 55 1015.5
20260904163849 76 356 0.0 0.0 0.00 0.00 0.00 53 1015.6
20260904163208 0 355 0.0 0.0 0.00 0.00 0.00
20260904162419 0 358 0.0 0.0 0.00 0.00 0.00
20260904161628 0 360 0.0 7.0 0.00 0.00 0.00
20260904160834 0 354 4.0 7.0 0.00 0.00 0.00
20260904155756 0 355 0.0 3.0 0.00 0.00 0.00
20260904154519 75 355 0.0 0.0 0.00 0.00 0.00 55 1015.4
20260904153839 0 359 0.0 0.0 0.00 0.00 0.00
20260904153056 74 359 0.0 0.0 0.00 0.00 0.00 59 1015.3